FW9917 Weather Reports


Display with metric or nautical units.
time (UTC)temp
F
wind
direction
speed
MPH
gust
MPH
rain 1hr
in
rain 24hr
in
rain mn
in
humidity
%
barometer
mb
20260506015556 52 0 0.0 0.0 0.00 0.58 0.32 71 1016.2
20260506015058 53 0 0.0 2.0 0.00 0.58 0.32 71 1016.1
20260506014602 53 0 0.0 2.0 0.00 0.58 0.32 71 1016.0
20260506014056 53 0 0.0 2.0 0.00 0.58 0.32 69 1016.0
20260506013554 54 0 0.0 3.0 0.00 0.58 0.32 68 1015.9
20260506013058 54 0 0.0 3.0 0.00 0.58 0.32 66 1015.8
20260506012556 55 15 1.0 4.0 0.00 0.58 0.32 62 1015.8
20260506012057 55 14 0.0 4.0 0.00 0.58 0.32 62 1015.7
20260506011558 55 14 1.0 4.0 0.00 0.58 0.32 64 1015.7
20260506011056 55 0 0.0 3.0 0.00 0.58 0.32 66 1015.6
20260506010557 55 0 0.0 3.0 0.00 0.58 0.32 64 1015.6
20260506010100 55 13 0.0 2.0 0.00 0.58 0.32 63 1015.5
20260506005557 55 0 0.0 3.0 0.00 0.71 0.32 63 1015.6
20260506005056 54 0 0.0 3.0 0.00 0.71 0.32 64 1015.6
20260506004626 55 14 1.0 3.0 0.00 0.71 0.32 67 1015.6
20260506004055 55 14 1.0 3.0 0.00 0.71 0.32 62 1015.6
20260506003556 55 14 1.0 3.0 0.00 0.71 0.32 66 1015.6
20260506003100 56 15 0.0 3.0 0.00 0.71 0.32 63 1015.6
20260506002556 56 14 0.0 4.0 0.00 0.71 0.32 61 1015.7
20260506002059 57 14 1.0 5.0 0.00 0.71 0.32 62 1015.8
20260506001556 57 0 1.0 5.0 0.00 0.71 0.32 63 1015.7
20260506001055 57 15 1.0 4.0 0.00 0.71 0.32 61 1015.6
20260506000556 57 14 0.0 4.0 0.00 0.71 0.32 64 1015.6
20260506000057 57 16 1.0 7.0 0.00 0.71 0.32 62 1015.5
20260505235558 57 14 0.0 7.0 0.00 0.74 0.32 64 1015.6
20260505235056 57 0 1.0 5.0 0.00 0.74 0.32 66 1015.6
20260505234615 57 0 2.0 5.0 0.00 0.74 0.32 65 1015.5
20260505234055 57 14 0.0 5.0 0.00 0.74 0.32 66 1015.5
20260505233556 57 15 1.0 4.0 0.00 0.74 0.32 65 1015.5
20260505233057 57 16 1.0 4.0 0.00 0.74 0.32 66 1015.5
20260505232556 57 14 0.0 7.0 0.00 0.74 0.32 66 1015.5
20260505232056 57 15 0.0 7.0 0.00 0.74 0.32 65 1015.6
20260505231558 57 15 2.0 5.0 0.00 0.74 0.32 66 1015.6
20260505231056 57 0 1.0 4.0 0.00 0.74 0.32 68 1015.6
20260505230556 56 14 0.0 4.0 0.00 0.74 0.32 71 1015.6
20260505230055 55 15 1.0 6.0 0.00 0.74 0.32 71 1015.7
20260505225556 55 16 1.0 7.0 0.00 0.85 0.32 72 1015.8
20260505225056 55 13 1.0 7.0 0.00 0.85 0.32 68 1015.8
20260505224555 55 15 1.0 5.0 0.00 0.85 0.32 69 1015.8
20260505224055 55 0 1.0 4.0 0.00 0.85 0.32 70 1015.8
20260505223555 55 14 1.0 5.0 0.00 0.85 0.32 69 1015.9
20260505223103 55 15 1.0 5.0 0.00 0.85 0.32 72 1015.8
20260505222556 55 15 1.0 7.0 0.00 0.85 0.32 74 1015.8
20260505222057 54 15 1.0 7.0 0.00 0.85 0.32 77 1015.8
20260505221608 53 15 0.0 3.0 0.00 0.85 0.32 80 1015.8
20260505221056 53 0 1.0 5.0 0.00 0.85 0.32 74 1015.9
20260505220600 53 15 1.0 5.0 0.00 0.85 0.32 76 1015.9
20260505220138 53 16 1.0 4.0 0.00 0.85 0.32 75 1015.9
20260505215557 53 15 0.0 5.0 0.00 0.92 0.32 79 1016.0
20260505215056 52 15 1.0 5.0 0.00 0.92 0.32 79 1015.8
20260505214616 51 15 0.0 3.0 0.00 0.92 0.32 83 1015.9
20260505214055 50 15 0.0 3.0 0.00 0.92 0.32 85 1016.0
20260505213558 49 0 0.0 3.0 0.00 0.92 0.32 86 1016.0
20260505213056 49 15 1.0 3.0 0.00 0.92 0.32 84 1016.0
20260505212558 49 0 0.0 2.0 0.00 0.92 0.32 83 1016.3
20260505212056 49 0 0.0 2.0 0.00 0.92 0.32 82 1016.2
20260505211613 49 0 0.0 2.0 0.00 0.92 0.32 85 1016.4
20260505211056 49 13 0.0 2.0 0.00 0.92 0.32 84 1016.3
20260505210557 49 0 0.0 3.0 0.00 0.92 0.32 85 1016.2
20260505210058 49 5 0.0 4.0 0.00 0.92 0.32 88 1016.2
20260505205557 49 0 1.0 4.0 0.00 1.01 0.32 89 1016.2
20260505205056 49 13 1.0 3.0 0.00 1.01 0.32 85 1016.2
20260505204558 49 0 0.0 3.0 0.00 1.01 0.32 89 1016.1
20260505204056 48 0 0.0 2.0 0.00 1.01 0.32 93 1016.1
20260505203556 47 0 0.0 2.0 0.00 1.01 0.32 89 1016.1
20260505203059 47 0 0.0 3.0 0.00 1.01 0.32 91 1016.1
20260505202556 47 15 0.0 3.0 0.00 1.01 0.32 92 1016.0
20260505202100 46 15 0.0 2.0 0.00 1.01 0.32 91 1016.1
20260505201607 46 15 0.0 2.0 0.00 1.01 0.32 90 1016.0
20260505201056 46 0 0.0 2.0 0.00 1.01 0.32 92 1016.3
20260505200557 46 0 0.0 2.0 0.00 1.01 0.32 91 1016.2
20260505200104 46 0 0.0 3.0 0.00 1.01 0.32 90 1016.2
20260505195555 46 0 1.0 3.0 0.00 1.10 0.32 92 1016.1
20260505195056 46 13 0.0 2.0 0.00 1.10 0.32 94 1016.2
20260505194606 45 0 0.0 2.0 0.00 1.10 0.32 94 1016.2
20260505194057 44 0 0.0 2.0 0.00 1.10 0.32 94 1016.0
20260505193556 44 175 0.0 2.0 0.00 1.10 0.32 94 1016.0
20260505193056 44 0 0.0 3.0 0.00 1.10 0.32 93 1016.0
20260505192556 44 0 0.0 3.0 0.00 1.10 0.32 92 1016.0
20260505192100 44 0 0.0 2.0 0.00 1.10 0.32 94 1016.0
20260505191557 44 0 0.0 2.0 0.00 1.10 0.32 94 1016.0
20260505191056 44 0 0.0 2.0 0.00 1.10 0.32 94 1016.0
20260505190557 44 0 0.0 2.0 0.00 1.10 0.32 95 1015.9
20260505190107 44 0 0.0 2.0 0.00 1.10 0.32 95 1016.0
20260505185557 44 261 0.0 2.0 0.00 1.10 0.32 95 1015.9
20260505185058 44 0 0.0 2.0 0.00 1.10 0.32 95 1015.8
20260505184600 43 0 0.0 0.0 0.00 1.10 0.32 97 1015.8
20260505184057 43 0 0.0 0.0 0.00 1.10 0.32 96 1015.8
20260505183616 42 0 0.0 0.0 0.00 1.10 0.32 95 1015.7
20260505183059 42 0 0.0 0.0 0.00 1.10 0.32 96 1015.7
20260505182556 42 0 0.0 0.0 0.00 1.10 0.32 96 1015.7
20260505182056 42 0 0.0 0.0 0.00 1.10 0.32 97 1015.7
20260505181556 42 0 0.0 0.0 0.00 1.10 0.32 97 1015.7
20260505181056 42 0 0.0 0.0 0.00 1.10 0.32 97 1015.7
20260505180556 42 0 0.0 0.0 0.00 1.10 0.32 97 1015.7
20260505175556 42 0 0.0 0.0 0.00 1.10 0.32 98 1015.5
20260505175056 41 0 0.0 0.0 0.00 1.10 0.32 98 1015.4
20260505174555 41 0 0.0 0.0 0.00 1.10 0.32 98 1015.4
20260505174056 41 0 0.0 0.0 0.00 1.10 0.32 98 1015.4
20260505173555 41 0 0.0 3.0 0.00 1.10 0.32 98 1015.2
20260505173058 41 0 0.0 3.0 0.00 1.10 0.32 98 1015.2
20260505172556 41 0 0.0 3.0 0.00 1.10 0.32 98 1015.0
20260505172056 40 0 0.0 1.0 0.00 1.10 0.32 98 1015.0
20260505171554 40 0 0.0 1.0 0.00 1.10 0.32 98 1015.0
20260505171057 40 0 0.0 1.0 0.00 1.10 0.32 98 1015.0
20260505170556 40 0 0.0 0.0 0.00 1.10 0.32 98 1015.0
20260505170101 40 0 0.0 0.0 0.00 1.10 0.32 98 1015.0
20260505165556 39 0 0.0 0.0 0.00 1.10 0.32 98 1014.9
20260505165056 39 0 0.0 0.0 0.00 1.10 0.32 98 1014.8
20260505164623 39 0 0.0 0.0 0.00 1.10 0.32 98 1014.9
20260505164057 39 0 0.0 0.0 0.00 1.10 0.32 98 1014.8
20260505163556 39 0 0.0 1.0 0.00 1.10 0.32 98 1014.8
20260505163059 39 0 0.0 1.0 0.00 1.10 0.32 98 1014.6
20260505162556 39 0 0.0 1.0 0.00 1.10 0.32 98 1014.6
20260505162056 38 0 0.0 1.0 0.00 1.10 0.32 98 1014.6
20260505161602 38 0 0.0 0.0 0.00 1.10 0.32 98 1014.6
20260505161057 38 0 0.0 1.0 0.00 1.10 0.32 98 1014.5
20260505160559 38 0 0.0 1.0 0.00 1.10 0.32 98 1014.5
20260505160109 38 0 0.0 1.0 0.00 1.10 0.32 98 1014.5
20260505153100 37 0 0.0 1.0 0.01 1.10 0.32 98 1014.1
20260505152558 37 0 0.0 1.0 0.01 1.10 0.32 98 1014.0
20260505152056 37 0 0.0 1.0 0.01 1.10 0.32 98 1014.0
20260505151558 37 0 0.0 1.0 0.01 1.10 0.32 98 1013.9
20260505151056 37 0 0.0 1.0 0.01 1.10 0.32 98 1013.9
20260505150556 37 0 0.0 1.0 0.01 1.10 0.32 98 1013.9
20260505140557 35 124 0.0 1.0 0.02 1.09 0.31 98 1013.4
20260505140117 35 0 0.0 1.0 0.02 1.09 0.31 98 1013.4
20260505124604 35 0 0.0 2.0 0.02 1.07 0.29 98 1012.9
20260505124057 35 0 0.0 2.0 0.01 1.05 0.28 98 1012.9
20260505123558 35 0 0.0 1.0 0.01 1.05 0.28 98 1012.9
20260505123058 35 0 0.0 1.0 0.01 1.05 0.28 98 1012.8
20260505122559 35 0 0.0 1.0 0.01 1.05 0.28 98 1012.9
20260505122057 35 0 0.0 1.0 0.02 1.05 0.28 98 1012.9
20260505121619 35 0 0.0 1.0 0.02 1.05 0.28 98 1012.9
20260505121057 35 0 0.0 1.0 0.02 1.05 0.28 98 1012.8
20260505120557 35 0 0.0 1.0 0.01 1.04 0.27 98 1012.8
20260505120110 35 0 0.0 1.0 0.01 1.04 0.27 98 1012.9
20260505115559 35 0 0.0 1.0 0.01 1.04 0.27 98 1012.9
20260505115056 35 0 0.0 1.0 0.01 1.04 0.27 98 1012.7
20260505114556 35 0 0.0 1.0 0.02 1.04 0.27 98 1012.8
20260505114056 35 0 0.0 1.0 0.02 1.04 0.27 98 1012.7
20260505113556 35 0 0.0 1.0 0.02 1.04 0.27 98 1012.8
20260505113057 35 0 0.0 1.0 0.02 1.04 0.27 97 1012.8
20260505112556 35 0 0.0 1.0 0.02 1.04 0.27 98 1012.9
20260505112056 35 0 0.0 1.0 0.01 1.04 0.26 98 1012.8
20260505111559 35 0 0.0 1.0 0.02 1.04 0.26 98 1012.9
20260505111057 35 0 0.0 1.0 0.02 1.04 0.26 98 1013.0
20260505110557 35 174 0.0 0.0 0.02 1.04 0.26 98 1012.9
20260505110104 35 0 0.0 0.0 0.02 1.04 0.26 98 1012.9
20260505102056 34 0 0.0 1.0 0.03 1.03 0.25 98 1013.2
20260505101555 34 0 0.0 1.0 0.03 1.02 0.24 98 1013.2
20260505101056 34 0 0.0 1.0 0.03 1.02 0.24 98 1013.1
20260505100556 34 0 0.0 3.0 0.03 1.02 0.24 98 1013.2
20260505100056 34 0 0.0 3.0 0.04 1.02 0.24 98 1013.3
20260505095556 34 0 0.0 1.0 0.05 1.02 0.24 97 1013.4
20260505095056 34 0 0.0 2.0 0.05 1.01 0.23 97 1013.3
20260505094555 34 0 0.0 2.0 0.06 1.01 0.23 97 1013.5
20260505094056 34 0 0.0 2.0 0.06 1.01 0.23 97 1013.4
20260505093556 34 119 0.0 1.0 0.06 1.00 0.22 97 1013.2
20260505093056 34 0 0.0 0.0 0.06 1.00 0.22 97 1013.4
20260505092558 34 0 0.0 1.0 0.06 1.00 0.22 97 1013.3
20260505092056 34 0 0.0 1.0 0.06 1.00 0.22 97 1013.5
20260505091609 34 0 0.0 1.0 0.06 0.99 0.21 97 1013.4
20260505091056 34 0 0.0 1.0 0.06 0.99 0.21 97 1013.4
20260505090556 34 0 0.0 1.0 0.06 0.99 0.21 97 1013.5
20260505090056 34 0 0.0 1.0 0.05 0.98 0.20 97 1013.6
20260505085556 34 0 0.0 1.0 0.05 0.97 0.19 97 1013.7
20260505085056 34 0 0.0 1.0 0.04 0.96 0.18 97 1013.8
20260505084555 34 0 0.0 1.0 0.04 0.95 0.17 97 1013.8
20260505084055 34 0 0.0 1.0 0.05 0.94 0.16 97 1013.6
20260505083555 34 0 0.0 1.0 0.07 0.94 0.16 97 1013.8
20260505083058 34 0 0.0 0.0 0.09 0.94 0.16 97 1013.9
20260505082556 34 0 0.0 1.0 0.11 0.94 0.16 97 1013.7
20260505082057 34 0 0.0 1.0 0.13 0.94 0.16 97 1013.9
20260505081600 34 0 0.0 1.0 0.14 0.93 0.15 97 1013.8
20260505081057 34 0 0.0 1.0 0.14 0.93 0.15 97 1013.8
20260505080557 34 0 0.0 1.0 0.15 0.93 0.15 97 1013.9
20260505080106 34 0 0.0 1.0 0.15 0.93 0.15 97 1013.9
20260505075556 34 0 0.0 1.0 0.15 0.92 0.14 97 1013.9
20260505075056 34 0 0.0 1.0 0.15 0.92 0.14 97 1014.0
20260505074559 34 0 0.0 1.0 0.15 0.91 0.13 97 1013.8
20260505074056 34 139 0.0 1.0 0.13 0.89 0.11 97 1013.8
20260505073556 34 0 0.0 1.0 0.12 0.87 0.09 97 1014.0
20260505073105 34 0 0.0 1.0 0.10 0.85 0.07 97 1014.1
20260505072556 34 0 0.0 2.0 0.09 0.83 0.05 97 1014.0
20260505072056 34 149 0.0 2.0 0.07 0.81 0.03 97 1013.9
20260505071556 34 0 0.0 2.0 0.05 0.79 0.01 97 1014.1
20260505071057 34 0 0.0 1.0 0.05 0.79 0.01 97 1014.1
20260505070556 34 0 0.0 1.0 0.05 0.78 0.00 97 1013.9
20260505070058 34 149 0.0 1.0 0.05 0.78 0.00 97 1013.9
20260505065556 34 0 0.0 1.0 0.04 0.77 0.77 97 1013.8
20260505065057 34 0 0.0 1.0 0.05 0.77 0.77 97 1013.7
20260505064606 34 0 0.0 1.0 0.04 0.76 0.76 97 1014.0
20260505064056 34 0 0.0 1.0 0.04 0.76 0.76 97 1014.0
20260505063556 34 0 0.0 0.0 0.04 0.75 0.75 97 1013.9
20260505063113 34 0 0.0 0.0 0.04 0.75 0.75 97 1013.8
20260505062556 34 0 0.0 0.0 0.03 0.74 0.74 97 1013.9
20260505062056 34 0 0.0 0.0 0.04 0.74 0.74 97 1013.9
20260505061558 34 0 0.0 1.0 0.04 0.74 0.74 97 1014.0
20260505061056 34 0 0.0 1.0 0.04 0.74 0.74 97 1014.0
20260505060557 34 0 0.0 0.0 0.03 0.73 0.73 97 1013.9
20260505060059 34 0 0.0 0.0 0.04 0.73 0.73 97 1014.1
20260505055557 34 0 0.0 0.0 0.04 0.73 0.73 97 1014.1
20260505055057 34 0 0.0 0.0 0.03 0.72 0.72 97 1014.2
20260505054609 34 0 0.0 0.0 0.03 0.72 0.72 97 1014.2
20260505054057 34 0 0.0 0.0 0.04 0.72 0.72 97 1014.1
20260505053556 34 0 0.0 0.0 0.03 0.71 0.71 97 1014.1
20260505053102 34 0 0.0 0.0 0.03 0.71 0.71 97 1014.2
20260505052556 34 0 0.0 0.0 0.04 0.71 0.71 97 1014.3
20260505052056 34 0 0.0 0.0 0.03 0.70 0.70 97 1014.3
20260505051556 34 0 0.0 0.0 0.04 0.70 0.70 97 1014.2
20260505051057 34 0 0.0 0.0 0.04 0.70 0.70 97 1014.4
20260505050556 34 0 0.0 0.0 0.05 0.70 0.70 97 1014.4
20260505041559 33 0 0.0 0.0 0.04 0.66 0.66 96 1014.3
20260505041059 33 0 0.0 0.0 0.05 0.66 0.66 96 1014.3
20260505040600 33 0 0.0 0.0 0.04 0.65 0.65 96 1014.3
20260505040058 33 0 0.0 0.0 0.03 0.64 0.64 97 1014.4
20260505035557 33 0 0.0 0.0 0.03 0.64 0.64 96 1014.2
20260505035059 33 0 0.0 0.0 0.04 0.64 0.64 96 1014.1
20260505034554 33 0 0.0 0.0 0.04 0.64 0.64 96 1013.7
20260505034059 33 0 0.0 0.0 0.03 0.63 0.63 96 1013.9
20260505033600 33 0 0.0 0.0 0.03 0.63 0.63 96 1014.4
20260505033056 33 0 0.0 0.0 0.03 0.63 0.63 96 1014.4
20260505032556 33 0 0.0 0.0 0.02 0.62 0.62 96 1014.2
20260505032055 33 0 0.0 1.0 0.02 0.62 0.62 96 1014.2
20260505031605 33 0 0.0 1.0 0.02 0.62 0.62 96 1014.3
20260505031057 33 0 0.0 1.0 0.01 0.61 0.61 96 1014.2
20260505030556 33 0 0.0 0.0 0.01 0.61 0.61 96 1014.2
20260505030103 33 0 0.0 0.0 0.02 0.61 0.61 96 1014.3
20260505025557 33 0 0.0 0.0 0.03 0.61 0.61 95 1014.1
20260505025058 33 0 0.0 0.0 0.02 0.60 0.60 95 1014.0
20260505024604 33 0 0.0 0.0 0.03 0.60 0.60 95 1013.9
20260505024056 33 0 0.0 0.0 0.04 0.60 0.60 95 1013.7
20260505023556 33 0 0.0 0.0 0.04 0.60 0.60 95 1013.7
20260505023056 33 0 0.0 0.0 0.06 0.60 0.60 95 1013.8
20260505022556 33 0 0.0 1.0 0.07 0.60 0.60 95 1013.9
20260505022056 33 0 0.0 1.0 0.08 0.60 0.60 95 1013.9
20260505021559 33 0 0.0 0.0 0.08 0.60 0.60 95 1014.1
20260505021056 33 0 0.0 0.0 0.08 0.60 0.60 95 1014.4
20260505020556 33 0 0.0 0.0 0.07 0.58 0.58 95 1014.1
20260505020057 33 0 0.0 0.0 0.08 0.58 0.58 95 1014.3